Location: Wavehorne
(51.0500°N, 0.8333°E)
Time: 06:31:37
(UTC+00:00)

NOSS 2-2 (C) - Pass Details

Date: 01 November 2021
Orbit: 444 x 1761 km, 63.3° (Epoch: 06 December)

Event Time Altitude Azimuth Distance (km) Brightness Sun altitude
Rises 19:00:23 0° 243° (WSW) 2,436 7.5 -23.9°
Reaches altitude 10° 19:02:27 10° 251° (WSW) 1,579 6.5 -24.2°
Enters shadow 19:05:34 41° 318° (NW) 705 4.1 -24.7°
